Regional Weather Roundup
Issued by NWS

Home | Current Version | Previous Version | Text Only | Print | Product List | Glossary Off
Versions: 1 2 3 4 5 6 7 8 9 10 11 12 13 14 15 16 17 18 19 20 21 22 23 24 25 26 27 28 29 30 31 32 33 34 35 36 37 38 39 40 41 42 43 44 45 46 47 48 49 50

729
ASUS43 KMKX 041800
RWRWI

WISCONSIN REGIONAL WEATHER ROUNDUP
NATIONAL WEATHER SERVICE MILWAUKEE/SULLIVAN WI
100 PM CDT WED MAY 04 2016

NOTE: "FAIR" INDICATES FEW OR NO CLOUDS BELOW 12,000 FEET WITH NO
SIGNIFICANT WEATHER AND/OR OBSTRUCTIONS TO VISIBILITY.

WIZ001-002-006>008-014>016-023>028-041900-
NORTHWEST WISCONSIN

CITY           SKY/WX    TMP DP  RH WIND       PRES   REMARKS
SUPERIOR ARPT  SUNNY     57  25  29 NE8G17    29.96F
ASHLAND        SUNNY     52  33  48 NE10G20   29.98S
6HR MIN TEMP:  43; 6HR MAX TEMP:  53;

HAYWARD        SUNNY     56  20  24 N10G22    29.94F
6HR MIN TEMP:  34; 6HR MAX TEMP:  56;

SIREN          SUNNY     60  26  27 N14G21    29.95S
CUMBERLAND     SUNNY     55  27  33 N15G23    29.93F
RICE LAKE      SUNNY     58  25  28 N16G24    29.94F
CHETEK         SUNNY     57  31  36 N10G23    29.93S
LADYSMITH      SUNNY     56  26  31 N16G25    29.93S
EAU CLAIRE     NOT AVBL
MENOMONIE      SUNNY     60  30  31 N18G25    29.93F
NEW RICHMOND   SUNNY     60  29  31 N14G23    29.96F
OSCEOLA        SUNNY     60  31  33 NW12G22   29.98F
$$

WIZ003>005-009-010-017-018-041900-
NORTH CENTRAL WISCONSIN

CITY           SKY/WX    TMP DP  RH WIND       PRES   REMARKS
MANITOWISH WTR CLOUDY    45  32  59 N9G17     29.92R
ARBOR VITAE    PTSUNNY   49  34  55 N12G23    29.91R
WOODRUFF       PTSUNNY   49  34  55 N12G23    29.91R
RHINELANDER    MOSUNNY   48  32  53 N10G22    29.90R
6HR MIN TEMP:  39; 6HR MAX TEMP:  48;

EAGLE RIVER    CLOUDY    41  30  63 N16       29.91R
LAND O LAKES   CLOUDY    42  32  69 N10       29.92R
PHILLIPS       SUNNY     51  27  39 NW14G21   29.90R
TOMAHAWK       SUNNY     52  28  39 N12G18    29.88F
MEDFORD        MOSUNNY   54  30  41 NW22G28   29.87F
MERRILL        NOT AVBL
$$

WIZ029-030-035-036-043>047-041900-
CENTRAL WISCONSIN

CITY           SKY/WX    TMP DP  RH WIND       PRES   REMARKS
WAUSAU         SUNNY     56  28  34 N14G24    29.84S
6HR MIN TEMP:  42; 6HR MAX TEMP:  57;

MOSINEE        SUNNY     54  28  37 N20G26    29.87S
MARSHFIELD     SUNNY     58  27  30 N22G30    29.86S
6HR MIN TEMP:  41; 6HR MAX TEMP:  58;

STEVENS POINT  MOSUNNY   53  28  37 NW16G29   29.85S
WAUPACA        PTSUNNY   56  32  39 N15G24    29.83S
WAUTOMA        CLOUDY    55  32  41 N15G21    29.83S
6HR MIN TEMP:  43; 6HR MAX TEMP:  56;

WISC RAPIDS    MOSUNNY   59  26  28 N17G29    29.86S
6HR MIN TEMP:  42; 6HR MAX TEMP:  59;

CAMP DOUGLAS   NOT AVBL
$$

WIZ011>013-019>022-031-037>040-048>050-041900-
NORTHEAST WISCONSIN

CITY           SKY/WX    TMP DP  RH WIND       PRES   REMARKS
ANTIGO         CLOUDY    47  34  61 N22       29.86S
SHAWANO        CLOUDY    53  35  50 N17       29.84S
OCONTO         CLOUDY    47  35  62 N14G21    29.82S
STURGEON BAY   CLOUDY    45  34  65 N21G26    29.83S
6HR MIN TEMP:  41; 6HR MAX TEMP:  46;

GREEN BAY      CLOUDY    50  36  58 N17       29.82S
6HR MIN TEMP:  43; 6HR MAX TEMP:  50;

MANITOWOC      NOT AVBL
APPLETON       PTSUNNY   52  32  46 N22G28    29.81S
CLINTONVILLE   CLOUDY    50  32  50 N17G26    29.84S
OSHKOSH        CLOUDY    51  35  54 N20G29    29.82S
6HR MIN TEMP:  43; 6HR MAX TEMP:  52;

$$

WIZ032>034-041-042-053>061-041900-
SOUTHWEST WISCONSIN

CITY           SKY/WX    TMP DP  RH WIND       PRES   REMARKS
LA CROSSE      MOSUNNY   63  34  33 N17G30    29.89F
6HR MIN TEMP:  46; 6HR MAX TEMP:  63;

SPARTA         MOSUNNY   58  33  38 N21G26    29.88F
VIROQUA        MOSUNNY   56  34  43 N17G29    29.88S
BOSCOBEL       MOSUNNY   62  32  32 N16G28    29.87F
6HR MIN TEMP:  48; 6HR MAX TEMP:  62;

PRAIRIE DU CHI SUNNY     59  32  35 N18G24    29.88F
PLATTEVILLE    MOSUNNY   58  35  42 N22G29    29.85S
$$

WIZ056-057-062-063-064-067-068-041900-
SOUTH CENTRAL WISCONSIN

CITY           SKY/WX    TMP DP  RH WIND       PRES   REMARKS
REEDSBURG      MOSUNNY   56  34  42 NW15G23   29.84S
BARABOO/DELLS  SUNNY     57  28  32 N15G23    29.84S
LONE ROCK      NOT AVBL
MINERAL POINT  MOSUNNY   59  32  36 N21G29    29.84S
MADISON        PTSUNNY   54  35  48 N14G23    29.82S
6HR MIN TEMP:  44; 6HR MAX TEMP:  55;

MIDDLETON      PTSUNNY   57  36  45 N22G28    29.83S
WATERTOWN      PTSUNNY   52  38  59 N20G25    29.81S
MONROE         PTSUNNY   54  34  47 N17G25    29.81S
JANESVILLE     CLOUDY    54  37  54 N18G24    29.80
$$

WIZ051-052-058>065-066-070>072-041900-
SOUTHEAST WISCONSIN

CITY           SKY/WX    TMP DP  RH WIND       PRES   REMARKS
MILWAUKEE      CLOUDY    45  36  70 NE12G21   29.80R
6HR MIN TEMP:  44; 6HR MAX TEMP:  49;

WAUKESHA       CLOUDY    46  34  61 N18G24    29.81R
MILWAUKEE/TIMM CLOUDY    46  34  61 N18G26    29.81R
RACINE         CLOUDY    46  38  73 NE13      29.80S
6HR MIN TEMP:  45; 6HR MAX TEMP:  49;

BURLINGTON     CLOUDY    47  36  65 N16G24    29.80S
KENOSHA        CLOUDY    48  35  60 N14G24    29.79S
6HR MIN TEMP:  46; 6HR MAX TEMP:  49;

FOND DU LAC    CLOUDY    51  36  56 N20G28    29.82S
6HR MIN TEMP:  44; 6HR MAX TEMP:  51;

SHEBOYGAN      CLOUDY    47  34  60 N16G28    29.80S
6HR MIN TEMP:  43; 6HR MAX TEMP:  48;

WEST BEND      CLOUDY    46  34  61 N15G21    29.80S
JUNEAU         PTSUNNY   51  36  57 N22       29.82F
$$

LSZ147-162-041900-
LAKE SUPERIOR

STATION/POSITION TIME  TEMP    WIND        PRES    WAVE
                       AIR SEA DIR/SP/G            HT/PER
                 (UTC) (F)     (DEG/KT/KT) (MB)    (FT/S)
W MID LAKE BUOY  1650   39 37   CALM  /  2 1016.0R   2/ 4
DEVILS ISLAND    1700   40     110/  8/  9 1016.2R
SAXON HARBOR     1740   41      50/  8/ 10 1015.6R
$$

LMZ867-665-643>646-041900-
LAKE MICHIGAN

STATION/POSITION TIME  TEMP    WIND        PRES    WAVE
                       AIR SEA DIR/SP/G            HT/PER
                 (UTC) (F)     (DEG/KT/KT) (MB)    (FT/S)
CHAMBERS ISLAND  1700   44     330/ 17/ 20 1009.8R
N MID LAKE BUOY  1650   40 39  350/ 16/ 19 1008.3R   4/ 5
NORTHPORT PIER   1703   41     340/ 20     1009.5R
ALGOMA LAKESHORE 1715          340/ 20/ 27   N/A
KEWAUNEE LAKESHO 1700   46     360/ 11/ 18 1008.6R
SHEBOYGAN LAKESH 1700   45     360/ 23/ 26 1009.5R
PORT WASHINGTON  1700   49     340/ 11/ 16 1009.8
S MID LAKE BUOY  1650   41 40  360/ 25/ 31 1006.7R   7/ 6
KENOSHA   LAKESH 1700   45      20/ 16/ 21 1008.5R
$$

TC  - TEMPERATURE IN CELSIUS
VSB - VISIBILITY IN STATUTE MILES
WCI - WIND CHILL INDEX
HX  - HEAT INDEX





USA.gov is the U.S. government's official web portal to all federal, state and local government web resources and services.